Zurück zum Katalog

STARLINK-31396

AktivKommunikationVLEO
NORAD 59409·PAYLOAD·🇺🇸 United States

Gestartet Apr 5, 2024 von Cape Canaveral Space Force Station

Loading…

Nächste Überflüge (nächste 24 Stunden)

TLE

AktuellSource: CelesTrak SupGP

Epoche: Sep 14, 2026, 22:23 UTC

1 59409C 24064M   26257.93312500  .00071417  00000+0  25862-2 0  2579
2 59409  43.0040  56.9211 0001700 269.6327 299.1056 15.27548810    11

Verfolge STARLINK-31396 in Echtzeit mit AllMySat

Download on the App Store